When you browse on this site, cookies collect data to enhance your experience and personalize the content and advertising you see.
Visit our Privacy Policy to learn more. By continuing to use the site, you agree to this use of cookies and data.
  • In Hungary
  • List of Countries
  • For 7 days
  • Water Temperature
  • Weather Map
  • News
  • Weather Widgets
  • user-avatar
    Login

    Hourly Weather Losvida

    Today, 15 December, Sunday

    Time Temperature Precipitation Wind Pressure Humidity
    00:00 -2°C° 0.1 mm 6 mps 738 mmHg 90%
    01:00 -1°C° 0.1 mm 5 mps 738 mmHg 92%
    02:00 -1°C° 0.1 mm 5 mps 738 mmHg 95%
    03:00 -1°C° 0.2 mm 5 mps 737 mmHg 95%
    04:00 0°C° 0.2 mm 5 mps 737 mmHg 95%
    05:00 0°C° 0.2 mm 5 mps 736 mmHg 95%
    06:00 0°C° 0.5 mm 5 mps 736 mmHg 95%
    07:00 0°C° 0.5 mm 4 mps 736 mmHg 96%
    08:00 +1°C° 0.5 mm 4 mps 735 mmHg 96%
    09:00 +1°C° 0.5 mm 4 mps 735 mmHg 96%
    10:00 +1°C° 0.5 mm 5 mps 735 mmHg 96%
    11:00 +1°C° 0.5 mm 5 mps 735 mmHg 96%
    12:00 +1°C° 0.2 mm 5 mps 735 mmHg 93%
    13:00 +1°C° 0.2 mm 5 mps 736 mmHg 89%
    14:00 +1°C° 0.2 mm 5 mps 736 mmHg 86%
    15:00 +1°C° 0 mm 5 mps 737 mmHg 86%
    16:00 +1°C° 0 mm 5 mps 737 mmHg 87%
    17:00 +1°C° 0 mm 5 mps 738 mmHg 87%
    18:00 0°C° 0 mm 4 mps 738 mmHg 87%
    19:00 0°C° 0 mm 4 mps 739 mmHg 87%
    20:00 0°C° 0 mm 4 mps 739 mmHg 87%
    21:00 -1°C° 0 mm 4 mps 739 mmHg 89%
    22:00 -1°C° 0 mm 4 mps 739 mmHg 90%
    23:00 -1°C° 0 mm 4 mps 740 mmHg 92%

    Tomorrow, 16 December, Monday

    Time Temperature Precipitation Wind Pressure Humidity
    00:00 -1°C° 0.1 mm 4 mps 740 mmHg 92%
    01:00 -1°C° 0.1 mm 4 mps 739 mmHg 93%
    02:00 -1°C° 0.1 mm 5 mps 739 mmHg 93%
    03:00 0°C° 0.1 mm 5 mps 739 mmHg 93%
    04:00 0°C° 0.1 mm 5 mps 739 mmHg 92%
    05:00 +1°C° 0.1 mm 5 mps 739 mmHg 91%
    06:00 +1°C° 0 mm 5 mps 739 mmHg 90%
    07:00 +1°C° 0 mm 5 mps 739 mmHg 88%
    08:00 0°C° 0 mm 5 mps 740 mmHg 87%
    09:00 +1°C° 0 mm 6 mps 740 mmHg 84%
    10:00 0°C° 0 mm 7 mps 740 mmHg 80%
    11:00 0°C° 0 mm 8 mps 740 mmHg 77%
    12:00 0°C° 0.1 mm 7 mps 741 mmHg 77%
    13:00 +2°C° 0.1 mm 7 mps 741 mmHg 77%
    14:00 +2°C° 0.1 mm 7 mps 741 mmHg 78%
    15:00 +2°C° 0 mm 7 mps 742 mmHg 77%
    16:00 +2°C° 0 mm 6 mps 743 mmHg 77%
    17:00 +2°C° 0 mm 6 mps 744 mmHg 77%
    18:00 +1°C° 0 mm 6 mps 744 mmHg 80%
    19:00 +1°C° 0 mm 5 mps 745 mmHg 83%
    20:00 0°C° 0 mm 5 mps 745 mmHg 87%
    21:00 0°C° 0 mm 4 mps 746 mmHg 89%
    22:00 -1°C° 0 mm 4 mps 746 mmHg 91%
    23:00 -1°C° 0 mm 4 mps 746 mmHg 93%

    Day after tomorrow, 17 December, Tuesday

    Time Temperature Precipitation Wind Pressure Humidity
    00:00 0°C° 0 mm 3 mps 747 mmHg 92%
    01:00 0°C° 0 mm 3 mps 747 mmHg 92%
    02:00 0°C° 0 mm 3 mps 747 mmHg 91%
    03:00 0°C° 0 mm 3 mps 746 mmHg 89%
    04:00 0°C° 0 mm 3 mps 746 mmHg 87%
    05:00 -1°C° 0 mm 4 mps 746 mmHg 85%
    06:00 0°C° 0.3 mm 4 mps 745 mmHg 87%
    07:00 0°C° 0.3 mm 4 mps 745 mmHg 90%
    08:00 0°C° 0.3 mm 5 mps 744 mmHg 92%
    09:00 +1°C° 0.5 mm 5 mps 744 mmHg 93%
    10:00 +1°C° 0.5 mm 5 mps 744 mmHg 93%
    11:00 +2°C° 0.5 mm 5 mps 744 mmHg 94%
    12:00 +3°C° 0.4 mm 4 mps 744 mmHg 94%
    13:00 +3°C° 0.4 mm 4 mps 744 mmHg 93%
    14:00 +3°C° 0.4 mm 3 mps 743 mmHg 93%
    15:00 +3°C° 0 mm 3 mps 744 mmHg 93%
    16:00 +3°C° 0 mm 3 mps 744 mmHg 94%
    17:00 +3°C° 0 mm 3 mps 744 mmHg 94%
    18:00 +2°C° 0 mm 3 mps 744 mmHg 95%
    19:00 +3°C° 0 mm 2 mps 744 mmHg 96%
    20:00 +3°C° 0 mm 2 mps 744 mmHg 96%
    21:00 +3°C° 0 mm 2 mps 745 mmHg 97%
    22:00 +2°C° 0 mm 2 mps 745 mmHg 97%
    23:00 +2°C° 0 mm 2 mps 745 mmHg 97%

    18 December, Wednesday

    Time Temperature Precipitation Wind Pressure Humidity
    00:00 +2°C° 0 mm 2 mps 745 mmHg 97%
    01:00 +2°C° 0 mm 2 mps 745 mmHg 97%
    02:00 +2°C° 0 mm 2 mps 745 mmHg 97%
    03:00 +2°C° 0 mm 2 mps 745 mmHg 97%
    04:00 +2°C° 0 mm 2 mps 744 mmHg 97%
    05:00 +2°C° 0 mm 2 mps 744 mmHg 96%
    06:00 +2°C° 0 mm 2 mps 744 mmHg 96%
    07:00 +2°C° 0 mm 2 mps 744 mmHg 96%
    08:00 +1°C° 0 mm 3 mps 744 mmHg 96%
    09:00 +2°C° 0 mm 3 mps 744 mmHg 94%
    10:00 +2°C° 0 mm 3 mps 744 mmHg 93%
    11:00 +3°C° 0 mm 3 mps 744 mmHg 92%
    12:00 +3°C° 0 mm 3 mps 744 mmHg 91%
    13:00 +3°C° 0 mm 3 mps 743 mmHg 90%
    14:00 +3°C° 0 mm 3 mps 743 mmHg 89%
    15:00 +3°C° 0 mm 3 mps 743 mmHg 90%
    16:00 +3°C° 0 mm 3 mps 743 mmHg 91%
    17:00 +3°C° 0 mm 4 mps 743 mmHg 93%
    18:00 +3°C° 0 mm 4 mps 743 mmHg 93%
    19:00 +1°C° 0 mm 4 mps 742 mmHg 93%
    20:00 +1°C° 0 mm 4 mps 742 mmHg 93%
    21:00 +3°C° 0 mm 4 mps 742 mmHg 93%
    22:00 +3°C° 0 mm 4 mps 742 mmHg 93%
    23:00 +2°C° 0 mm 5 mps 742 mmHg 92%

    19 December, Thursday

    Time Temperature Precipitation Wind Pressure Humidity
    00:00 +2°C° 0 mm 5 mps 742 mmHg 92%
    01:00 +2°C° 0 mm 5 mps 742 mmHg 92%
    02:00 +2°C° 0 mm 5 mps 742 mmHg 91%
    03:00 +2°C° 0 mm 5 mps 742 mmHg 90%
    04:00 +3°C° 0 mm 5 mps 742 mmHg 88%
    05:00 +3°C° 0 mm 5 mps 742 mmHg 87%
    06:00 +3°C° 0 mm 4 mps 742 mmHg 87%
    07:00 +3°C° 0 mm 4 mps 743 mmHg 87%
    08:00 +3°C° 0 mm 4 mps 743 mmHg 87%
    09:00 +2°C° 0 mm 3 mps 744 mmHg 85%
    10:00 +2°C° 0 mm 3 mps 744 mmHg 83%
    11:00 +2°C° 0 mm 3 mps 745 mmHg 81%
    12:00 +2°C° 0 mm 3 mps 745 mmHg 80%
    13:00 +2°C° 0 mm 3 mps 745 mmHg 79%
    14:00 +3°C° 0 mm 2 mps 745 mmHg 78%
    15:00 +2°C° 0 mm 2 mps 745 mmHg 81%
    16:00 +2°C° 0 mm 2 mps 745 mmHg 83%
    17:00 +1°C° 0 mm 2 mps 746 mmHg 85%
    18:00 +1°C° 0 mm 2 mps 746 mmHg 87%
    19:00 -1°C° 0 mm 2 mps 746 mmHg 90%
    20:00 -1°C° 0 mm 2 mps 746 mmHg 92%
    21:00 -1°C° 0 mm 2 mps 746 mmHg 92%
    22:00 -1°C° 0 mm 2 mps 746 mmHg 92%
    23:00 -1°C° 0 mm 2 mps 747 mmHg 92%

    20 December, Friday

    Time Temperature Precipitation Wind Pressure Humidity
    00:00 -1°C° 0 mm 2 mps 747 mmHg 89%
    01:00 -1°C° 0 mm 2 mps 747 mmHg 86%
    02:00 -1°C° 0 mm 2 mps 747 mmHg 83%
    03:00 +1°C° 0 mm 1 mps 747 mmHg 82%
    04:00 +1°C° 0 mm 1 mps 747 mmHg 81%
    05:00 +1°C° 0 mm 1 mps 747 mmHg 80%
    06:00 +1°C° 0 mm 1 mps 747 mmHg 82%
    07:00 0°C° 0 mm 1 mps 747 mmHg 83%
    08:00 0°C° 0 mm 1 mps 747 mmHg 84%
    09:00 0°C° 0 mm 1 mps 748 mmHg 82%
    10:00 -1°C° 0 mm 0 mps 748 mmHg 81%
    11:00 0°C° 0 mm 0 mps 748 mmHg 79%
    12:00 0°C° 0 mm 0 mps 748 mmHg 79%
    13:00 0°C° 0 mm 0 mps 748 mmHg 79%
    14:00 0°C° 0 mm 0 mps 747 mmHg 79%
    15:00 0°C° 0 mm 0 mps 748 mmHg 81%
    16:00 -1°C° 0 mm 0 mps 748 mmHg 83%
    17:00 -2°C° 0 mm 0 mps 748 mmHg 86%
    18:00 -1°C° 0 mm 1 mps 748 mmHg 85%
    19:00 -1°C° 0 mm 1 mps 748 mmHg 85%
    20:00 -1°C° 0 mm 1 mps 748 mmHg 85%
    21:00 -1°C° 0 mm 1 mps 748 mmHg 86%
    22:00 -1°C° 0 mm 1 mps 748 mmHg 87%
    23:00 -1°C° 0 mm 1 mps 748 mmHg 88%
    Show more